Home   Weather   Celje   Past weeks

Flag for Slovenia Past Weather in Celje, Slovenia — Yesterday and Last 2 Weeks

Now
28 °F

Chilly.


Feels Like: 28 °F
Forecast: 22 / 30 °F
Wind: 2 mph from North

Location: Celje

Current Time: Jan 17, 2017 at 10:54:25 pm

Latest Report: Jan 17, 2017 at 10:00 pm


Visibility: N/A

Pressure: 30.44 "Hg

Humidity: 66%

Dew Point: 18 °F

Location of CeljeLocation

Past Weather in Celje — Graph

°F

Celje Temperature Yesterday

Maximum temperature yesterday: 28 °F (at 11:00 pm)
Minimum temperature yesterday: 13 °F (at 3:00 am)
Average temperature yesterday: 22 °F

High & Low Weather Summary for the Past Weeks

 TemperatureHumidityPressure
High41 °F (Jan 13, 3:00 am)95% (Jan 13, 1:00 pm)30.57 "Hg (Jan 13, 1:00 pm)
Low-3 °F (Jan 11, 4:00 am)21% (Jan 6, 1:00 pm)29.47 "Hg (Jan 13, 10:00 am)
Average23 °F74%30.15 "Hg
* Reported Jan 2 9:00 pm — Jan 17 9:00 pm, Celje, Weather by CustomWeather, © 2017

Note: Actual official high and low records may vary slightly from our data, if they occured in-between our weather recording intervals... More about our weather records

Advertising

Celje Weather History for the Previous 24 Hours

Scroll right to see more
 ConditionsComfort  
Time TempWeatherWind HumidityBarometerVisibility
9:00 pm
Tue, Jan 17
29 °FChilly.2 mph62%30.44 "HgN/A
8:00 pm30 °FChilly.3 mph62%30.42 "HgN/A
7:00 pm30 °FChilly.3 mph61%30.41 "HgN/A
6:00 pm30 °FChilly.5 mph61%30.39 "HgN/A
5:00 pm30 °FChilly.3 mph64%30.37 "HgN/A
4:00 pm31 °FChilly.5 mph62%30.35 "HgN/A
3:00 pm31 °FChilly.5 mph60%30.33 "HgN/A
2:00 pm34 °FOvercast.3 mphN/AN/A22 mi
12:00 pm32 °FChilly.5 mph62%30.29 "HgN/A
11:00 am31 °FChilly.3 mph65%30.31 "HgN/A
10:00 am30 °FChilly.3 mph70%30.31 "HgN/A
9:00 am26 °FChilly.1 mph89%30.30 "HgN/A
8:00 am25 °FChilly.1 mphN/AN/AN/A
7:00 am26 °FOvercast.1 mph94%30.26 "Hg16 mi
6:00 am26 °FChilly.1 mph87%30.25 "HgN/A
5:00 am26 °FChilly.1 mph88%30.24 "HgN/A
4:00 am25 °FChilly.1 mph89%30.23 "HgN/A
3:00 am26 °FChilly.1 mph86%30.23 "HgN/A
2:00 am26 °FChilly.1 mph88%30.22 "HgN/A
1:00 am25 °FChilly.1 mph86%30.22 "HgN/A
12:00 am28 °FChilly.3 mph68%30.21 "HgN/A
11:00 pm
Mon, Jan 16
28 °FChilly.2 mph71%30.21 "HgN/A
10:00 pm28 °FChilly.2 mph75%30.20 "HgN/A
Weather by CustomWeather, © 2017

See weather overviewHow to use our weather pages